Wind_Speed
16 16 16 17 17 17 16 16 16 16 17 17 16 16 15 15 15 14 14 14 13 12 11 11 11 10 10 10 10 9 9 9 9 9 9 9 9 9 9 9 8 8 8 8
17 17 17 18 19 18 17 16 17 16 17 18 17 16 16 15 15 15 14 14 14 14 12 11 11 11 11 11 10 10 9 10 10 10 10 10 9 9 10 10 10 9 9 9
19 18 18 18 18 18 17 16 17 17 18 18 17 16 16 15 15 15 14 14 14 14 13 12 12 12 12 11 10 11 10 10 11 11 10 10 10 10 11 11 11 11 11 11
19 20 20 19 18 17 17 16 16 17 18 18 18 17 15 16 16 16 16 15 15 15 14 13 12 11 11 11 11 11 11 12 12 11 11 11 11 11 12 12 12 12 12 12
19 20 20 20 19 19 17 17 18 17 18 18 19 19 16 16 16 16 16 15 14 14 14 13 12 11 11 11 11 12 11 11 11 11 11 12 12 12 13 13 13 13 13 13
18 19 20 20 20 20 20 19 20 19 19 19 18 20 18 16 15 16 16 16 15 14 13 12 12 12 12 12 12 13 12 12 12 12 12 13 14 14 14 15 15 14 14 14
19 20 19 20 21 21 20 20 21 21 21 21 19 20 18 17 16 16 15 15 15 14 13 12 13 12 13 14 13 13 13 12 13 13 13 14 15 15 15 15 15 15 15 15
21 21 21 21 21 21 20 21 22 22 22 21 20 21 19 17 16 15 15 15 15 15 14 13 13 13 13 13 13 13 14 13 13 14 14 15 15 15 15 16 16 16 16 16
21 22 22 22 22 22 21 22 23 23 23 23 22 20 18 17 16 16 16 16 16 15 15 15 15 15 14 14 14 15 15 14 14 14 14 15 16 16 16 17 18 17 17 17
22 22 22 23 23 23 23 22 23 23 23 23 23 20 18 16 16 16 16 15 16 15 15 16 16 16 16 16 16 16 16 15 15 15 15 16 17 17 19 20 20 20 19 18
22 23 23 23 24 24 23 23 24 25 24 24 24 22 19 18 18 17 17 16 16 16 16 17 17 18 18 18 17 17 17 16 16 16 17 17 18 18 19 20 20 20 20 19
23 24 24 24 23 24 24 24 25 26 26 26 26 23 21 21 21 19 19 18 18 17 17 18 18 19 19 20 19 19 19 18 18 19 19 19 20 20 19 19 19 19 20 20
24 25 25 25 25 25 25 25 25 26 26 27 27 25 23 23 23 22 20 20 19 18 18 19 20 20 21 20 20 21 21 20 20 20 20 20 19 20 20 20 20 21 21 21
26 26 26 26 26 26 27 27 26 26 27 28 27 26 24 24 24 23 22 21 21 20 20 20 20 21 21 21 22 22 22 22 22 21 20 21 20 21 21 21 21 22 22 22
27 27 27 27 27 28 28 28 28 28 28 28 27 26 25 24 25 24 24 23 22 22 22 22 22 22 23 23 23 23 23 23 22 22 21 21 21 22 23 23 22 22 22 22
27 28 28 28 28 29 29 29 29 29 29 29 28 26 25 26 26 25 25 25 24 24 24 24 24 24 24 24 23 24 24 24 23 23 23 23 22 22 23 23 23 23 22 22
28 28 29 29 29 30 31 29 30 30 29 29 28 27 27 27 26 27 27 27 26 25 26 26 26 26 25 25 25 26 26 25 23 23 24 23 23 23 23 24 23 23 24 23
27 27 28 29 30 31 30 30 31 30 30 30 29 28 28 28 28 28 27 27 28 27 28 27 27 27 26 26 25 26 26 25 25 24 24 24 25 25 25 25 24 25 25 24
27 28 28 29 30 31 30 30 30 30 29 29 29 28 28 29 29 29 29 29 29 29 30 30 30 29 29 28 27 27 27 26 26 26 26 26 26 27 27 26 26 26 26 26
27 28 29 30 31 31 28 29 30 30 30 28 28 28 28 29 30 29 29 30 30 30 30 30 30 30 30 30 29 29 29 28 28 28 28 27 28 28 27 27 27 27 28 27
27 28 29 30 31 31 29 28 29 30 29 28 28 28 28 29 30 29 30 31 31 30 30 30 30 31 31 30 29 30 30 30 29 29 29 28 28 28 28 28 28 28 28 28
27 28 28 28 30 30 29 29 29 29 29 27 27 27 27 28 29 30 30 31 30 30 29 29 30 31 31 30 30 30 30 31 31 30 30 29 29 29 29 29 28 28 28 27
28 27 27 27 28 28 29 29 29 29 28 28 27 27 27 27 28 29 30 30 31 30 30 30 30 31 31 31 31 31 31 31 30 30 30 30 30 30 29 29 28 28 29 29
26 26 26 27 27 27 28 28 28 28 27 26 27 27 27 28 28 28 29 29 29 30 30 30 30 30 29 29 30 31 30 30 30 30 30 30 30 30 30 30 29 30 30 30
26 26 26 26 26 26 27 27 27 27 27 27 27 27 27 27 28 28 29 28 28 29 30 30 30 30 29 28 28 29 28 28 28 29 29 29 29 30 30 30 31 31 30 30
25 25 25 26 26 26 25 26 26 26 25 26 27 27 27 27 27 27 28 27 27 28 28 29 29 30 29 28 29 29 28 28 29 29 29 29 29 29 30 30 30 30 30 30
Wind_Direction
239 241 245 249 249 251 253 254 254 254 257 258 259 258 258 260 262 264 268 273 274 271 276 276 278 276 272 272 277 277 272 269 267 263 260 264 269 267 262 264 268 276 282 285
239 241 244 246 247 248 249 254 256 254 256 260 260 258 257 259 261 263 268 271 272 266 265 271 273 269 268 270 270 269 266 267 266 259 256 263 266 269 265 265 268 275 281 283
240 239 242 245 249 250 251 254 255 256 257 259 260 257 256 260 263 265 266 268 270 263 262 267 270 267 264 265 265 265 264 267 267 261 258 261 266 270 267 266 269 278 280 281
239 239 240 244 247 250 253 255 255 257 258 258 260 261 257 260 263 266 265 267 268 265 265 265 268 266 262 265 266 264 269 272 267 262 263 264 267 267 264 264 268 277 279 281
239 238 241 244 247 250 252 253 255 258 260 262 262 263 261 264 267 269 268 268 269 268 265 261 264 268 261 264 270 272 276 275 272 273 276 266 266 266 264 264 267 273 277 279
240 240 241 244 246 248 252 254 256 257 261 263 265 265 266 266 268 268 268 267 266 266 265 260 257 260 259 262 268 270 274 276 275 273 275 271 265 264 268 270 268 268 273 277
240 242 244 246 248 250 253 256 257 258 260 265 266 265 270 269 268 268 267 267 263 263 264 261 257 258 261 262 265 269 273 274 273 272 271 274 271 268 268 269 267 268 272 274
246 244 245 247 250 251 252 255 257 261 264 266 266 267 271 271 268 265 263 262 259 259 257 257 257 259 263 263 264 271 274 274 272 270 270 271 273 271 268 268 266 269 271 273
250 246 244 246 250 252 253 255 256 260 264 266 265 267 268 268 267 263 264 261 257 256 256 256 258 260 262 265 268 271 275 276 276 273 271 271 274 272 269 268 267 267 271 273
249 249 247 247 249 251 254 256 255 256 261 263 264 265 266 267 266 264 261 261 260 260 259 259 261 261 260 261 265 268 273 274 274 271 273 273 274 274 270 270 269 269 269 271
250 250 250 250 252 254 254 254 255 258 259 261 263 265 266 266 267 266 264 263 265 266 264 263 263 261 260 261 263 267 271 274 274 275 275 274 274 274 274 269 267 268 268 270
252 253 253 254 256 256 256 255 255 257 260 261 262 264 263 264 264 265 264 263 263 265 264 263 262 261 261 261 262 265 269 272 274 275 274 272 274 275 272 269 267 269 271 272
253 254 255 254 254 255 256 256 256 258 260 261 262 265 265 265 264 263 264 262 262 262 262 262 263 262 260 261 263 265 267 270 273 274 273 271 273 274 273 270 269 269 271 272
256 256 256 257 257 258 258 258 258 259 260 262 264 265 265 265 265 264 264 263 262 260 261 262 265 264 264 262 261 264 267 271 273 274 272 270 271 270 268 270 270 270 271 271
256 257 257 257 257 258 258 259 259 260 263 265 266 265 264 265 264 264 265 264 262 262 263 265 267 268 268 267 267 267 269 271 273 273 272 269 270 269 268 269 268 269 271 271
255 256 255 255 256 257 257 257 259 260 262 263 264 264 263 265 264 262 263 265 263 262 261 265 267 265 268 270 271 272 273 276 273 270 270 270 268 268 269 270 270 270 271 272
254 254 256 256 257 258 258 258 259 259 260 263 264 265 263 263 264 264 264 264 263 261 263 264 264 266 270 271 275 275 274 276 276 273 270 271 269 269 269 270 271 271 271 271
257 257 258 259 258 259 261 259 259 259 260 262 264 264 263 263 263 263 262 263 263 260 261 263 266 270 273 274 276 275 276 277 275 273 272 272 271 270 270 271 271 271 272 272
259 261 262 263 262 261 261 260 260 260 260 262 264 263 262 262 262 261 261 262 262 261 261 263 265 269 272 274 274 273 272 274 273 272 272 271 272 270 268 269 270 270 269 269
261 261 263 264 264 262 263 262 261 262 262 263 265 265 264 262 262 260 260 262 261 260 261 262 264 267 270 272 272 272 272 272 272 270 269 270 271 270 268 269 268 268 268 268
264 265 265 264 263 263 263 264 264 264 265 265 265 265 265 263 262 263 262 262 263 263 262 263 265 266 267 269 272 273 272 272 273 271 268 268 269 269 271 270 269 267 267 267
265 265 266 263 263 263 262 262 264 266 266 266 266 266 266 264 262 262 262 263 263 263 263 264 265 268 269 270 271 272 272 274 274 271 268 268 269 269 271 271 270 267 267 267
267 266 267 266 264 263 262 262 263 265 267 266 267 266 265 265 263 262 262 262 263 264 265 265 266 268 268 268 271 272 273 275 275 272 271 269 269 270 270 269 268 267 266 266
267 267 268 267 264 262 262 264 265 265 265 267 267 266 264 264 263 262 261 261 262 263 266 266 265 264 264 267 270 272 274 274 275 275 275 273 272 271 269 268 266 266 266 267
265 266 267 266 265 263 262 264 265 266 266 266 266 266 264 264 264 265 263 261 260 262 264 264 264 264 266 267 270 273 273 274 275 275 275 276 275 272 271 271 270 269 267 267
266 266 266 265 265 265 265 265 265 265 266 266 267 266 265 265 266 266 264 262 262 263 264 265 265 266 268 270 272 273 274 276 275 274 277 277 276 275 273 272 271 271 271 270
Height
5845 5848 5849 5850 5852 5853 5854 5856 5857 5858 5858 5859 5859 5860 5860 5861 5861 5862 5862 5862 5862 5862 5863 5862 5862 5862 5862 5862 5863 5863 5863 5862 5862 5862 5862 5862 5863 5862 5862 5862 5862 5862 5862 5862
5843 5845 5846 5847 5848 5849 5851 5852 5853 5855 5854 5855 5855 5856 5857 5857 5858 5858 5859 5859 5859 5859 5859 5859 5859 5859 5860 5860 5860 5860 5860 5860 5860 5859 5860 5860 5861 5861 5861 5861 5861 5860 5860 5860
5839 5842 5842 5843 5845 5846 5848 5849 5850 5851 5851 5851 5852 5853 5853 5854 5854 5855 5855 5855 5855 5855 5856 5856 5856 5856 5857 5857 5858 5857 5858 5857 5857 5857 5857 5858 5858 5858 5859 5859 5858 5858 5858 5857
5834 5837 5838 5840 5841 5843 5844 5846 5846 5846 5847 5847 5848 5848 5850 5850 5851 5852 5852 5852 5852 5852 5853 5853 5853 5854 5854 5855 5854 5855 5855 5855 5854 5854 5855 5855 5855 5855 5856 5856 5856 5855 5855 5855
5831 5833 5834 5836 5838 5839 5841 5841 5842 5842 5842 5843 5843 5844 5846 5847 5848 5848 5849 5849 5849 5849 5849 5850 5850 5851 5851 5852 5852 5852 5851 5852 5852 5852 5851 5852 5852 5853 5853 5853 5853 5852 5852 5852
5827 5829 5830 5832 5834 5835 5836 5837 5838 5838 5838 5839 5840 5840 5841 5843 5844 5845 5845 5845 5845 5846 5846 5846 5847 5848 5848 5848 5848 5848 5849 5849 5849 5849 5849 5849 5849 5849 5850 5849 5849 5849 5849 5849
5823 5825 5826 5827 5829 5830 5831 5833 5833 5833 5833 5835 5836 5835 5838 5839 5840 5840 5841 5841 5841 5842 5842 5843 5844 5844 5845 5845 5846 5846 5846 5846 5846 5846 5846 5846 5846 5846 5846 5846 5846 5846 5845 5844
5818 5821 5822 5823 5824 5826 5826 5828 5829 5829 5830 5831 5831 5831 5834 5835 5835 5836 5836 5837 5837 5838 5839 5839 5841 5841 5842 5842 5842 5842 5843 5842 5842 5842 5842 5842 5842 5842 5842 5843 5842 5842 5841 5841
5813 5816 5818 5819 5819 5821 5821 5822 5824 5825 5825 5825 5826 5828 5829 5830 5831 5831 5832 5833 5833 5834 5834 5835 5836 5837 5838 5839 5838 5839 5838 5838 5838 5838 5837 5838 5838 5838 5838 5838 5838 5838 5837 5837
5808 5810 5812 5813 5814 5816 5817 5818 5818 5819 5819 5820 5821 5823 5825 5826 5827 5827 5828 5828 5829 5830 5830 5831 5832 5832 5833 5834 5834 5834 5834 5834 5834 5833 5833 5833 5833 5833 5833 5833 5833 5833 5832 5832
5802 5805 5807 5808 5809 5810 5811 5812 5812 5814 5814 5815 5816 5820 5821 5821 5822 5823 5824 5824 5825 5826 5826 5827 5827 5827 5828 5828 5829 5829 5829 5829 5829 5829 5829 5828 5828 5828 5827 5827 5827 5827 5827 5826
5797 5799 5800 5802 5803 5804 5805 5806 5808 5809 5809 5809 5810 5816 5816 5817 5817 5818 5819 5819 5820 5821 5821 5821 5822 5822 5822 5822 5823 5823 5824 5824 5824 5824 5823 5823 5823 5822 5822 5822 5822 5822 5821 5821
5791 5792 5793 5795 5798 5798 5799 5800 5801 5803 5804 5804 5805 5810 5810 5811 5811 5812 5813 5814 5815 5815 5815 5816 5816 5817 5816 5816 5817 5817 5817 5817 5817 5817 5817 5816 5816 5817 5817 5816 5816 5816 5816 5816
5784 5785 5787 5789 5790 5791 5792 5794 5795 5796 5796 5798 5799 5802 5803 5804 5805 5806 5807 5807 5808 5809 5810 5810 5810 5810 5810 5810 5811 5812 5812 5811 5811 5810 5810 5810 5810 5810 5810 5810 5810 5810 5810 5810
5776 5778 5780 5782 5783 5784 5785 5787 5788 5789 5790 5791 5793 5795 5797 5797 5799 5800 5800 5801 5802 5803 5803 5802 5802 5803 5804 5805 5805 5805 5805 5805 5804 5804 5804 5804 5804 5804 5804 5803 5804 5804 5804 5804
5769 5771 5772 5774 5776 5777 5778 5779 5781 5782 5783 5784 5786 5788 5790 5790 5792 5792 5793 5794 5795 5796 5796 5796 5796 5797 5798 5798 5798 5798 5798 5797 5797 5797 5797 5797 5797 5797 5797 5797 5797 5797 5797 5797
5762 5764 5765 5767 5768 5768 5770 5772 5773 5774 5775 5777 5778 5781 5782 5783 5784 5785 5786 5787 5788 5789 5789 5790 5790 5790 5790 5790 5790 5790 5790 5789 5789 5789 5789 5790 5790 5790 5790 5790 5790 5789 5789 5789
5755 5756 5757 5758 5760 5760 5765 5764 5765 5767 5768 5769 5771 5772 5774 5775 5776 5778 5779 5780 5781 5781 5782 5782 5782 5782 5783 5782 5782 5783 5782 5782 5781 5781 5782 5782 5782 5783 5782 5782 5782 5782 5782 5781
5748 5749 5749 5750 5750 5751 5755 5756 5757 5758 5760 5762 5763 5764 5766 5767 5768 5770 5770 5772 5773 5773 5774 5774 5774 5775 5775 5775 5775 5775 5774 5774 5774 5774 5774 5774 5774 5774 5774 5774 5774 5774 5774 5774
5740 5741 5742 5742 5742 5744 5748 5748 5749 5751 5751 5754 5755 5756 5757 5758 5760 5762 5762 5763 5764 5764 5765 5766 5766 5766 5766 5767 5767 5767 5767 5766 5766 5765 5765 5765 5765 5765 5765 5765 5765 5765 5766 5766
5733 5733 5734 5734 5734 5736 5739 5740 5741 5743 5745 5746 5746 5747 5748 5749 5751 5753 5753 5754 5755 5755 5756 5757 5757 5757 5758 5758 5758 5758 5758 5757 5756 5756 5756 5756 5756 5756 5756 5755 5755 5756 5756 5757
5725 5725 5726 5727 5727 5731 5732 5732 5734 5735 5736 5737 5737 5738 5739 5740 5741 5743 5744 5745 5745 5746 5747 5748 5748 5748 5748 5748 5749 5749 5748 5748 5747 5747 5747 5747 5748 5747 5746 5746 5746 5747 5747 5748
5717 5718 5718 5720 5722 5723 5723 5724 5725 5726 5728 5729 5729 5730 5731 5731 5732 5733 5735 5736 5736 5737 5738 5738 5739 5739 5739 5739 5739 5739 5740 5739 5738 5738 5738 5738 5738 5738 5737 5737 5737 5738 5738 5739
5710 5710 5711 5712 5713 5714 5715 5716 5717 5718 5719 5720 5720 5721 5722 5723 5724 5725 5726 5727 5727 5728 5729 5729 5730 5730 5730 5730 5730 5730 5730 5730 5730 5730 5729 5729 5728 5728 5728 5728 5728 5729 5729 5730
5703 5703 5704 5704 5705 5706 5708 5709 5709 5710 5711 5712 5712 5713 5713 5714 5715 5716 5717 5718 5718 5719 5720 5720 5721 5721 5721 5721 5721 5721 5721 5721 5721 5720 5720 5719 5719 5718 5718 5718 5719 5719 5720 5720
5696 5696 5697 5697 5698 5699 5701 5701 5702 5703 5703 5704 5704 5704 5705 5706 5707 5707 5708 5709 5710 5710 5711 5711 5711 5712 5712 5713 5713 5712 5712 5712 5711 5711 5710 5710 5709 5709 5709 5709 5709 5709 5709 5710